| time (UTC) | temp F | wind direction | speed MPH | gust MPH | rain 1hr in | rain 24hr in | rain mn in | humidity % | barometer mb |
| 20260505052620 | 75 | 148 | 4.0 | 7.0 | 0.00 | 0.00 | 0.00 | 92 | 1009.0 |
| 20260505051119 | 75 | 128 | 4.0 | 8.0 | 0.00 | 0.00 | 0.00 | 92 | 1009.1 |
| 20260505041146 | 75 | 126 | 3.0 | 8.0 | 0.00 | 0.00 | 0.00 | 91 | 1009.3 |
| 20260505035628 | 75 | 123 | 4.0 | 8.0 | 0.00 | 0.00 | 0.00 | 91 | 1009.5 |
| 20260505034128 | 75 | 140 | 4.0 | 7.0 | 0.00 | 0.00 | 0.00 | 90 | 1009.6 |
| 20260505032625 | 75 | 138 | 4.0 | 8.0 | 0.00 | 0.00 | 0.00 | 90 | 1009.5 |
| 20260505031140 | 75 | 148 | 4.0 | 9.0 | 0.00 | 0.00 | 0.00 | 89 | 1009.2 |
| 20260505025640 | 75 | 130 | 4.0 | 8.0 | 0.00 | 0.00 | 0.00 | 89 | 1009.3 |
| 20260505024121 | 75 | 144 | 5.0 | 8.0 | 0.00 | 0.00 | 0.00 | 89 | 1009.1 |
| 20260505022623 | 75 | 63 | 6.0 | 9.0 | 0.00 | 0.00 | 0.00 | 88 | 1008.9 |
| 20260505021143 | 75 | 121 | 7.0 | 10.0 | 0.00 | 0.00 | 0.00 | 87 | 1008.6 |
| 20260505015619 | 75 | 131 | 5.0 | 9.0 | 0.00 | 0.00 | 0.00 | 86 | 1008.6 |
| 20260505014120 | 76 | 113 | 7.0 | 11.0 | 0.00 | 0.00 | 0.00 | 86 | 1008.7 |
| 20260505012643 | 76 | 140 | 6.0 | 13.0 | 0.00 | 0.00 | 0.00 | 85 | 1008.6 |
| 20260505011120 | 76 | 119 | 6.0 | 17.0 | 0.00 | 0.00 | 0.00 | 84 | 1008.5 |
| 20260505005642 | 77 | 141 | 8.0 | 14.0 | 0.00 | 0.00 | 0.00 | 83 | 1008.7 |
| 20260505004143 | 77 | 80 | 6.0 | 14.0 | 0.00 | 0.00 | 0.00 | 82 | 1008.7 |
| 20260505002621 | 78 | 125 | 7.0 | 17.0 | 0.00 | 0.00 | 0.00 | 82 | 1008.7 |
| 20260505001121 | 78 | 126 | 7.0 | 15.0 | 0.00 | 0.00 | 0.00 | 80 | 1008.8 |
| 20260504235619 | 78 | 102 | 8.0 | 14.0 | 0.00 | 0.00 | 0.00 | 79 | 1008.9 |
| 20260504234120 | 79 | 111 | 8.0 | 16.0 | 0.00 | 0.00 | 0.00 | 79 | 1009.0 |
| 20260504232644 | 80 | 135 | 8.0 | 15.0 | 0.00 | 0.00 | 0.00 | 78 | 1008.9 |
| 20260504231122 | 80 | 134 | 8.0 | 15.0 | 0.00 | 0.00 | 0.00 | 78 | 1009.1 |
| 20260504225626 | 80 | 105 | 8.0 | 17.0 | 0.00 | 0.00 | 0.00 | 78 | 1009.1 |
| 20260504224124 | 80 | 182 | 12.0 | 20.0 | 0.00 | 0.00 | 0.00 | 76 | 1009.0 |
| 20260504222626 | 80 | 149 | 8.0 | 14.0 | 0.00 | 0.00 | 0.00 | 76 | 1008.9 |
| 20260504221125 | 81 | 113 | 9.0 | 16.0 | 0.00 | 0.00 | 0.00 | 76 | 1009.0 |
| 20260504215624 | 81 | 108 | 11.0 | 17.0 | 0.00 | 0.00 | 0.00 | 74 | 1008.9 |
| 20260504214142 | 82 | 95 | 9.0 | 20.0 | 0.00 | 0.00 | 0.00 | 74 | 1009.2 |
| 20260504212621 | 82 | 111 | 8.0 | 15.0 | 0.00 | 0.00 | 0.00 | 75 | 1009.4 |
| 20260504211118 | 81 | 131 | 9.0 | 15.0 | 0.00 | 0.00 | 0.00 | 74 | 1009.8 |
| 20260504205621 | 81 | 125 | 8.0 | 15.0 | 0.00 | 0.00 | 0.00 | 75 | 1009.8 |
| 20260504204140 | 81 | 151 | 10.0 | 17.0 | 0.00 | 0.00 | 0.00 | 74 | 1009.9 |
| 20260504202635 | 82 | 95 | 7.0 | 16.0 | 0.00 | 0.00 | 0.00 | 74 | 1009.9 |
| 20260504201124 | 82 | 96 | 5.0 | 14.0 | 0.00 | 0.00 | 0.00 | 74 | 1010.1 |
| 20260504195623 | 81 | 137 | 9.0 | 14.0 | 0.00 | 0.00 | 0.00 | 74 | 1010.6 |
| 20260504194124 | 82 | 127 | 7.0 | 12.0 | 0.00 | 0.00 | 0.00 | 73 | 1010.4 |
| 20260504192624 | 82 | 128 | 7.0 | 16.0 | 0.00 | 0.00 | 0.00 | 73 | 1010.6 |
| 20260504191139 | 82 | 80 | 8.0 | 14.0 | 0.00 | 0.00 | 0.00 | 74 | 1010.6 |
| 20260504185641 | 82 | 167 | 4.0 | 14.0 | 0.00 | 0.00 | 0.00 | 74 | 1011.0 |
| 20260504184119 | 82 | 99 | 9.0 | 18.0 | 0.00 | 0.00 | 0.00 | 73 | 1011.0 |
| 20260504182638 | 82 | 188 | 5.0 | 16.0 | 0.00 | 0.00 | 0.00 | 73 | 1011.3 |
| 20260504181142 | 82 | 144 | 7.0 | 17.0 | 0.00 | 0.00 | 0.00 | 71 | 1011.1 |
| 20260504175620 | 81 | 104 | 5.0 | 12.0 | 0.00 | 0.00 | 0.00 | 72 | 1011.3 |
| 20260504174118 | 81 | 158 | 8.0 | 15.0 | 0.00 | 0.00 | 0.00 | 72 | 1011.6 |
| 20260504172619 | 82 | 119 | 6.0 | 16.0 | 0.00 | 0.00 | 0.00 | 71 | 1011.9 |
| 20260504171136 | 81 | 136 | 7.0 | 15.0 | 0.00 | 0.00 | 0.00 | 71 | 1011.8 |
| 20260504151124 | 78 | 145 | 8.0 | 16.0 | 0.00 | 0.00 | 0.00 | 76 | 1012.9 |
| 20260504141138 | 77 | 109 | 9.0 | 17.0 | 0.00 | 0.00 | 0.00 | 80 | 1012.8 |
| 20260504081134 | 68 | 119 | 0.0 | 1.0 | 0.00 | 0.00 | 0.00 | 92 | 1014.0 |